CDT,Max TemperatureF,Mean TemperatureF,Min TemperatureF,Max Dew PointF,MeanDew PointF,Min DewpointF,Max Humidity, Mean Humidity, Min Humidity, Max Sea Level PressureIn, Mean Sea Level PressureIn, Min Sea Level PressureIn, Max VisibilityMiles, Mean VisibilityMiles, Min VisibilityMiles, Max Wind SpeedMPH, Mean Wind SpeedMPH, Max Gust SpeedMPH,PrecipitationIn, CloudCover, Events, WindDirDegrees
2011-10-1,71,55,39,34,33,32,75,50,23,30.21,30.16,30.04,10,10,10,24,13,31,0.00,0,,157
2011-10-2,82,64,46,37,35,34,62,39,19,30.06,30.03,29.99,10,10,10,14,10,18,0.00,0,,153
2011-10-3,82,66,51,39,37,34,58,37,17,30.07,30.04,30.01,10,10,10,22,12,26,0.00,0,,158
2011-10-4,86,70,53,41,38,36,54,37,19,30.05,29.99,29.89,10,10,10,22,11,29,0.00,0,,150
2011-10-5,87,73,59,45,41,36,59,36,16,29.93,29.89,29.85,10,10,7,25,14,32,0.00,0,,153
2011-10-6,80,70,59,41,37,34,45,32,20,29.91,29.85,29.76,10,10,7,36,17,45,0.00,0,,150
2011-10-7,78,70,62,52,45,34,59,42,23,29.75,29.68,29.61,10,10,10,34,24,47,0.00,2,,176
2011-10-8,64,60,55,45,41,30,67,51,31,30.10,29.96,29.79,10,10,7,12,8,,0.00,3,,252
2011-10-9,64,58,51,59,50,43,94,78,67,30.24,30.16,30.01,10,10,2,10,5,,0.18,5,,54
2011-10-10,64,58,53,55,51,46,94,76,59,29.97,29.88,29.80,10,10,2,29,13,33,0.12,4,,165
2011-10-11,77,60,44,52,45,37,93,66,24,29.77,29.73,29.67,10,10,10,17,10,22,0.00,0,,166
2011-10-12,68,59,50,55,50,45,94,75,49,29.71,29.68,29.63,10,10,4,20,8,17,0.07,4,,222
2011-10-13,59,52,44,45,42,37,93,73,45,29.75,29.72,29.68,10,10,3,21,10,24,0.07,3,,314
2011-10-14,55,48,42,43,40,36,93,74,54,29.88,29.81,29.72,10,10,10,28,12,34,0.00,7,,316
2011-10-15,53,44,35,37,35,32,93,69,47,29.91,29.88,29.83,10,10,10,16,12,22,0.00,2,,292
2011-10-16,51,43,35,37,33,28,93,65,41,29.95,29.90,29.85,10,10,10,26,14,36,0.00,1,,293
2011-10-17,55,44,32,32,29,27,93,60,33,29.94,29.91,29.88,10,10,10,28,15,34,0.00,0,,299
2011-10-18,46,39,32,30,25,18,87,60,34,30.16,30.09,30.00,10,10,10,20,12,28,0.00,2,,341
2011-10-19,44,35,26,30,26,19,81,67,53,30.23,30.19,30.15,10,10,10,16,9,20,0.00,5,,347
2011-10-20,50,36,21,32,27,18,93,72,43,30.13,30.06,29.98,10,10,4,8,4,,0.00,0,,335
2011-10-21,60,45,30,36,30,21,81,62,39,30.05,29.97,29.93,10,10,2,16,8,22,0.00,0,,249
2011-10-22,62,46,30,37,32,23,93,62,34,30.12,30.03,29.86,10,10,7,17,4,25,0.00,1,,194
2011-10-23,57,46,35,41,36,30,87,68,38,29.94,29.84,29.79,10,10,10,14,7,21,0.01,2,,291
2011-10-24,51,42,32,39,35,28,93,75,58,30.01,29.97,29.93,10,10,10,8,3,,0.00,3,,285
2011-10-25,48,45,42,39,36,34,81,72,58,30.05,30.00,29.94,10,10,10,8,6,,0.08,7,,38
2011-10-26,48,42,35,41,35,32,93,79,54,30.15,30.09,30.05,10,10,10,15,5,18,0.00,5,,307
2011-10-27,50,36,23,32,27,19,100,73,32,30.08,30.04,29.99,10,10,10,10,5,16,0.00,0,,247
2011-10-28,51,40,28,30,27,21,93,64,32,30.08,30.03,29.98,10,10,10,20,8,26,0.00,1,,292
2011-10-29,50,36,21,28,23,18,93,61,30,30.04,29.93,29.81,10,10,10,18,7,21,0.00,2,,149
2011-10-30,42,38,33,34,31,23,87,70,53,29.99,29.87,29.78,10,10,10,20,10,24,0.00,7,,304
2011-10-31,57,42,28,32,30,25,93,66,36,30.00,29.89,29.75,10,10,10,23,7,29,0.00,1,,166